Tracking 32427 objects as of 10-Dec-2025
HD Live streaming from Space Station
objects crossing your sky now

STARLINK-34209

Track STARLINK-34209 now!
10-day predictions
STARLINK-34209 is classified as:


NORAD ID: 64150
Int'l Code: 2025-112E
Perigee: 556.2 km
Apogee: 557.0 km
Inclination: 97.6 °
Period: 95.6 minutes
Semi major axis: 6927 km
RCS: Unknown
Launch date: May 27, 2025
Source: United States (US)
Launch site: AIR FORCE WESTERN TEST RANGE (AFWTR)
Your satellite tracking list
Your tracking list is empty




NASA's NSSDC Master Catalog

Two Line Element Set (TLE):
1 64150U 25112E   25344.11626514  .00006182  00000-0  43221-3 0  9993
2 64150  97.6034  33.2715 0000557 166.5596 193.5646 15.05658772 29835
Source of the keplerian elements: AFSPC